www.pogodaiklimat.ru
Время
(UTC), дата
20:26 30.12
20:44 30.12
20:52 30.12
21:01 30.12
21:17 30.12
21:24 30.12
21:50 30.12
21:52 30.12
22:12 30.12
22:52 30.12
23:52 30.12
00:52 30.12
01:52 30.12
02:52 30.12
03:10 30.12
03:52 30.12
03:59 30.12
04:52 30.12
05:52 31.12
06:52 31.12
07:14 31.12
07:37 31.12
07:47 31.12
07:52 31.12
08:09 31.12
08:17 31.12
08:32 31.12
08:45 31.12
08:52 31.12
09:02 31.12
09:14 31.12
09:52 31.12
10:52 31.12
10:59 31.12
11:48 31.12
11:52 31.12
12:34 31.12
12:52 31.12
13:17 31.12
13:52 31.12
14:52 31.12
15:52 31.12
16:52 31.12
17:52 31.12
18:52 31.12
19:52 31.12
20:52 31.12
21:52 31.12
Ветер
(напр.,м/с)
Видим. Явления Облачность Т
(С)
Тd
(С)
f
(%)
Тe
(С)
Тes
(С)
Комфортность P
(гПа)
Po
(гПа)
Тmin
(С)
Tmax
(С)
R
(мм)
R24
(мм)
S
(см)
З 10
{16}
5 км дымка 10/10 360 м -3.3 -4.4 92 -13 -13 971.1
З 11
{17}
4 км дымка 10/10 300 м -3.3 -4.4 92 -14 -14 971.1
З 10
{17}
5 км дымка 10/10 300 м -3.3 -4.4 92 -13 -13 1003.1 971.1
З 10
{17}
4 км дымка 10/10 300 м -3.9 -5.0 92 -14 -14 971.4
З 11
{15}
4 км дымка 10/10 450 м -3.9 -5.0 92 -14 -14 971.7
З 11
{15}
4 км неопределенные осадки, дымка 10/10 420 м -3.9 -4.4 96 -14 -14 971.7
З 13
{18}
6 км дымка 10/10 420 м -4.0 -6.0 86 -15 -15 972.0
З 13
{18}
8 км дымка 10/10 420 м -3.9 -5.6 88 -15 -15 1003.9 972.0
З 9
{15}
10 км дымка 10/10 480 м -3.9 -5.0 92 -14 -14 972.0
З 12
{16}
5 км слабый снег, дымка 10/10 510 м -4.4 -5.6 91 -15 -15 1004.1 972.0 -4.4 -2.2
З 12
{16}
11 км 10/10 480 м -4.4 -6.1 88 -15 -15 1004.3 972.4
З 10
{16}
16 км 10/10 420 м -4.4 -6.1 88 -15 -15 1004.6 972.4
З 11
{18}
16 км 10/10 420 м -4.4 -6.7 84 -15 -15 1005.0 973.0
З 13
{17}
16 км 10/10 450 м -4.4 -6.7 84 -15 -15 1004.7 972.7
З 13
{18}
3 км слабый снег, дымка 10/10 510 м -4.4 -6.7 84 -15 -15 972.7
З 9
{13}
3 км дымка 10/10 690 м -4.4 -6.1 88 -14 -14 1005.0 973.0
З 10
{14}
5 км слабый снег, дымка 10/10 600 м -4.4 -6.1 88 -14 -14 973.0
З 13
{17}
16 км 10/10 480 м -4.4 -6.1 88 -15 -15 1004.9 972.7 -5.0 -4.4
З 11
{16}
16 км 10/10 450 м -3.9 -5.6 88 -14 -14 1005.0 973.0
З 11
{15}
6 км слабый снег, дымка 10/10 510 м -3.9 -5.6 88 -14 -14 1005.5 973.3
З 9
{13}
4 км слабый снег, дымка 10/10 630 м -3.9 -5.0 92 -13 -13 974.0
З 10
{14}
4 км слабый снег, дымка 10/10 390 м -3.9 -5.0 92 -14 -14 974.3
З 10
{16}
6 км слабый снег, дымка 10/10 450 м -4.0 -5.0 93 -14 -14 974.3
З 10
{16}
11 км 10/10 450 м -3.9 -5.0 92 -14 -14 1006.4 974.3
СЗ 11
{17}
3 км слабый снег, дымка 10/10 510 м -4.4 -5.6 91 -15 -15 974.7
СЗ 11
{17}
5 км слабый снег, дымка 10/10 540 м -4.4 -6.7 84 -15 -15 974.7
СЗ 8
{14}
14 км 10/10 540 м -4.4 -6.7 84 -14 -14 975.0
СЗ 8
{13}
14 км 10/10 600 м -4.4 -6.7 84 -13 -13 975.0
СЗ 8 8 км слабый снег, дымка 10/10 540 м -4.4 -6.7 84 -14 -14 1007.1 975.0
СЗ 7
{11}
3 км слабый снег, дымка 10/10 540 м -5.0 -6.7 88 -14 -14 975.0
СЗ 7 11 км 10/10 420 м -5.0 -6.1 92 -14 -14 975.0
СЗ 6 11 км 10/10 360 м -4.4 -6.1 88 -12 -12 1007.2 975.0
СЗ 9
{15}
16 км 10/10 390 м -5.6 -7.8 84 -16 -16 1008.1 976.0 -5.6 -3.3
З 7
{13}
16 км 8/5 1320 м
[средняя]
-5.0 -7.8 81 -14 -14 976.0
З 7
{12}
16 км 8/8 480 м -6.0 -7.0 93 -15 -15 976.6
З 7 16 км 8/8 480 м -5.0 -7.2 85 -14 -14 1008.8 976.6
СЗ 8
{13}
16 км 5/5 450 м -5.6 -7.8 84 -15 -15 977.0
З 9 16 км 2/2 510 м -5.6 -7.8 84 -15 -15 1009.5 977.0
СЗ 7 16 км 8/8 480 м -5.6 -7.2 88 -15 -15 977.6
СЗ 7 16 км 10/10 480 м -4.4 -6.7 84 -13 -13 1010.3 977.9
СЗ 8
{13}
16 км 10/10 420 м -3.9 -6.1 85 -13 -13 1011.3 978.9
СЗ 8 16 км 10/10 360 м -2.8 -5.0 85 -11 -11 1011.4 979.3
З 9 16 км 10/10 360 м -2.2 -4.4 85 -11 -11 1011.2 978.9 -5.6 -2.2
З 9 16 км 10/10 390 м -1.7 -3.9 85 -11 -11 1010.6 978.3
З 7 16 км 10/10 420 м -1.1 -3.3 85 -9 -9 1010.6 978.3
З 8 16 км 10/10 480 м -1.1 -3.3 85 -9 -9 1011.0 978.9
З 7 16 км 10/10 480 м -1.1 -3.9 81 -9 -9 1011.6 979.3
З 6 16 км 2/2 510 м -2.2 -3.9 88 -10 -10 1012.1 979.9
Местоположение метеостанции The Eastern Iowa Airport: широта 41.8844 долгота -91.7106 высота над уровнем моря 263 м.
В архиве по умолчанию представлена погода в Сидар-Рапидсе за последние 1-2 суток. Обновление информации о фактической погоде в базе происходит ежечасно! Архивные данные за месяц целиком и за предыдущие месяцы Вы можете получить, выбрав интересующий диапазон дат из раскрывающегося списка и нажав кнопку "Ввод!".
Внимание! Архив погоды МЕТАР в базе сайта по станциям, не включенным в климатический монитор, хранится не более 60 дней. Нет смысла пытаться выбрать более раннюю дату.
*Определитесь, кто Вы:
Внимание! Время в таблицах - всемирное. Для получения местного времени необходимо прибавить поправку, которая равна ч.
Смотрите также архив погоды в соседних городах и на ближайших метеорологических станциях:
Партнеры нашего сайта:      
Пояснения к столбцам:
  • Ветер - указаны скорость ветра в м/с - средняя за 10 мин, порывы в срок и между сроками (в фигурных скобках) и направление, откуда дует ветер: С - северный,
  • СВ - северо-восточный, В - восточный, ЮВ - юго-восточный, Ю - южный, ЮЗ - юго-западный, З - западный, СЗ - северо-западный.
  • Видимость - горизонтальная дальность видимости в метрах или километрах. При видимости от 1 до 10 км при отсутствии осадков обычно наблюдается дымка, при ухудшении видимости до 1 км и менее - туман. В сухую погоду видимость может ухудшаться дымом, пылью или мглою.
  • Явления - указаны атмосферные явления, наблюдавшиеся в срок или в последний час перед сроком; фигурными скобками обозначены явления, наблюдавшиеся между сроками (за 1-3 часа до срока); квадратными скобками обозначены град или гололедные отложения с указанием их диаметра в мм.
  • Облачность - указаны через наклонную черту общая и нижняя облачность в баллах и высота нижней границы облаков в метрах; квадратными скобками обозначены формы облаков: Ci - перистые, Cs - перисто-слоистые, Cc - перисто-кучевые, Ac - высококучевые, As - высокослоистые, Sc - слоисто-кучевые, Ns - слоисто-дождевые, Cu - кучевые, Cb - кучево-дождевые. Подробнее классификацию облаков см. в Атласе облаков (PDF).
  • T - Температура воздуха - температура, измеренная на высоте 2 м над землей.
  • Td - Температура точки росы - температура, при понижении до которой содержащийся в воздухе водяной пар достигнет насыщения.
  • f - Относительная влажность воздуха - влажноcть воздуха, измеренная на высоте 2 м над землей.
  • Te - Эффективная температура - температура, которую ощущает одетый по сезону человек в тени. Характеристика душности погоды. При расчете учитывается влияние влажности воздуха и скорости ветра на теплоощущения человека.
  • Tes - Эффективная температура на солнце - температура, которую ощущает человек, с поправкой на солнечный нагрев. Характеристика знойности погоды. Зависит от высоты солнца над горизонтом, облачности и скорости ветра. Ночью, в пасмурную погоду, а также при ветре 12 м/с и более поправка равна нулю.
  • P - Атмосферное давление - приведенное к уровню моря атмосферное давление.
  • Po - Атмосферное давление - измеренное на уровне метеостанции атмосферное давление.
  • Tmin - Минимальная температура - минимум температуры воздуха на высоте 2 м над землей.
  • Tmax - Максимальная температура - максимум температуры воздуха на высоте 2 м над землей.
  • R - Количество осадков - Количество выпавших осадков за период времени, мм. При наведении курсора мыши на число - период времени, за который выпало указанное количество осадков.
  • R24 - Количество осадков - Количество выпавших осадков за 24 часа, мм.
  • S - Снежный покров - Высота снежного покрова, см. При наведении курсора мыши на число - состояние снежного покрова и степень покрытия местности в баллах.